Погода в Ихреке

Россия / Республика Дагестан     41°41′38″N   47°12′38″E
темп.,
°C
ветер,
м/с
пор.,
м/с
влажн.,
%
обл.,
%
осадки,
мм/ч
давл.,
гПа
погр.,
м
2 июля, сб
сб200:00+6зсз11961 0.0 101610
03:00+5з22915 0.0 101412
06:00+8зюз228121 0.0 1013142
09:00+12юз337141 0.1 1011928
12:00+13ююз346919 2.2 10091061
15:00+12ююз447727 6.0 1009765
18:00+9ююз338696 3.2 1011332
21:00+5ююв119518 5.4 101333
3 июля, вс
вс300:00+5ю229484 0.3 101453
03:00+3зюз229412 0.3 101331
06:00+6зюз228915 0.1 1013202
09:00+8юз447831 0.9 1012888
12:00+8юз438131 1.3 1013812
15:00+9юз336983 2.5 10131200
18:00+6ссв118198 0.9 1015431
21:00+5з019298 1.4 101797
4 июля, пн
пн400:00+4сз1195100 0.9 1017488
03:00+4ююв1196100 1.5 1016188
06:00+3ююз1197100 3.9 1018532
09:00+3юз019699 6.8 1019354
12:00+8юз117798 1.5 1017877
15:00+7ююз228096 3.6 1017813
18:00+6ююз228786 0.5 1018390
21:00+5зюз229599 0.8 1021153
5 июля, вт
вт500:00+3з119644 0.1 102016
03:00+2зсз11885 0.1 102014
06:00+4сз11804 0.0 1020112
09:00+9ю21637 0.0 10181050
12:00+12юв225689 0.1 10171688
15:00+9в1180100 0.6 1018447
18:00+8юв118697 0.3 1019282
21:00+5зюз229780 0.6 102117
6 июля, ср
ср600:00+6зюз119173 0.1 102021
03:00+3з11959 0.1 102110
06:00+5з11891 0.0 1021141
09:00+10ююз216921 0.0 10191041
12:00+12ю326497 0.1 10181172
15:00+11ю2275100 0.7 1019806
18:00+8ююз228849 0.3 1021302
21:00+7зсз229154 0.3 102236